COSMOS 2228

Last updated on Fri Oct 31 2025 00:02:13 GMT+0000 (Coordinated Universal Time)

1 22286U 92094A 25303.23089724 .00002966 00000+0 25846-3 0 9992 2 22286 82.5207 2.1552 0018658 25.9242 334.2910 14.96438169756543
UTC large
Height (km)
Speed (km/s)
/
Latitude / Longitude
Inclination (degrees)
Orbital Period (minutes)
Azimuth
Elevation
Range (km)
Doppler Factor

Next 0 passes for location: London (51.5072 / 0.1276)

Sorry there are no passes over London.